Theta_e
345 347 347 347 346 345 344 342 340 338 338 337 338 338 338 337 338 340 339 333 331 331 331 332 332 332 332 332 332 332 332 332 332 332 332 332 332 332 333 333 334 334 335 335 336 336 336 336 336 336 335 335 335 333 331 330 329 328 328 327 326 325 325 325 324 325 325 325 325 326 326 326 325 325
343 344 345 346 345 345 344 342 341 339 338 337 337 337 338 338 337 339 338 332 329 330 331 331 332 331 331 331 331 331 331 332 332 331 331 331 331 332 332 332 332 333 334 334 335 335 335 336 336 336 336 336 336 335 333 331 329 328 328 327 326 325 325 325 325 325 325 325 326 326 326 326 326 325
341 341 342 343 344 344 344 343 342 341 339 337 335 335 335 336 336 336 335 332 329 329 330 330 330 330 330 330 330 330 330 331 331 331 331 330 330 330 330 330 331 331 332 332 333 333 334 335 335 335 336 336 336 336 335 333 331 329 328 327 327 326 325 325 325 325 325 326 326 326 327 327 327 325
339 339 340 341 342 342 343 342 341 341 340 339 336 333 332 332 331 331 331 330 329 329 329 329 329 329 329 330 330 330 330 330 330 331 330 329 329 328 328 327 328 328 329 330 331 332 333 333 334 334 335 336 336 336 336 336 334 331 329 327 327 327 326 326 325 326 326 327 327 327 327 327 327 326
336 336 337 338 339 340 341 341 341 340 340 340 338 336 334 332 330 329 329 328 328 328 328 328 329 329 329 329 329 330 330 330 331 331 330 330 330 329 328 327 327 327 327 327 328 329 330 332 333 333 334 334 335 336 336 336 336 335 332 329 327 327 327 326 326 327 328 328 329 329 328 328 327 326
334 335 335 335 336 337 338 339 339 339 339 339 339 338 337 336 335 333 332 331 330 329 329 329 329 329 329 330 330 330 331 331 331 331 331 331 331 331 331 330 330 329 329 328 328 327 327 328 330 331 333 333 334 335 336 336 337 336 335 332 329 327 327 327 326 327 329 330 330 330 329 328 328 326
335 335 334 333 333 334 335 335 336 337 337 338 338 337 337 337 337 336 336 336 335 334 333 332 332 332 332 332 332 332 332 332 333 333 333 333 333 333 332 332 331 330 331 331 331 331 329 328 327 328 330 332 333 334 334 335 336 336 336 335 332 329 327 326 326 327 328 330 330 330 329 329 328 327
335 335 334 333 332 333 333 333 334 335 335 336 336 337 337 337 337 337 336 337 337 337 336 334 334 334 334 334 334 334 334 334 335 335 335 336 336 335 334 334 333 333 334 334 333 333 332 331 329 328 328 330 332 333 333 333 334 335 336 336 335 333 330 328 327 327 328 329 330 330 330 329 329 328
334 333 333 332 332 332 332 332 332 333 334 335 335 336 336 337 337 337 337 337 337 338 337 336 335 335 334 334 334 334 334 334 334 334 334 334 334 334 335 335 335 335 336 336 336 335 334 333 332 330 328 329 330 332 333 333 332 333 335 336 336 335 334 331 329 327 327 328 330 330 331 330 329 328
332 332 331 331 331 331 331 331 331 331 332 333 333 333 334 334 335 335 336 336 336 337 336 335 334 334 334 334 333 333 333 334 334 334 333 333 333 333 333 335 335 334 335 336 336 336 336 337 336 333 331 329 329 330 330 330 331 331 332 334 335 336 336 335 331 329 327 328 329 331 331 330 330 329
331 331 331 331 331 331 331 331 331 331 331 332 332 332 332 333 334 334 334 334 335 335 335 335 334 334 334 334 334 334 334 334 335 334 335 336 336 334 334 335 336 336 337 337 338 338 338 339 340 338 336 332 330 328 328 327 327 328 329 330 332 334 335 336 335 331 328 328 329 331 331 331 330 330
331 331 330 331 331 330 331 331 331 331 332 332 332 332 333 333 334 335 335 335 335 336 336 336 336 336 336 336 335 335 336 336 336 336 338 340 339 340 341 341 340 340 341 341 342 342 342 342 341 340 338 335 331 328 327 326 326 326 327 328 330 332 334 336 337 335 331 328 329 331 332 332 331 330
331 331 331 330 330 330 330 331 331 332 332 333 333 333 334 335 337 338 338 338 338 339 340 340 339 339 339 339 338 338 339 339 339 341 343 345 346 347 348 348 347 347 347 347 347 345 344 343 341 340 338 336 335 333 329 327 327 327 328 327 328 331 334 336 337 337 334 331 330 331 332 332 332 331
330 331 331 331 331 331 331 331 331 332 332 333 334 335 336 338 340 341 342 342 342 341 342 342 342 343 342 341 342 343 343 345 346 348 350 351 352 352 351 352 352 351 350 350 348 345 343 342 341 340 339 335 335 337 335 333 330 329 329 328 329 330 332 335 337 337 336 334 331 331 332 332 332 332
330 330 330 331 331 331 331 331 332 332 333 334 335 336 338 341 343 345 346 346 346 345 345 345 347 349 347 344 346 348 350 352 353 354 354 354 352 350 348 350 351 350 350 351 350 347 346 345 344 342 341 338 337 338 339 339 338 334 332 330 330 330 331 334 336 337 337 336 333 332 332 332 332 332
330 330 330 330 331 331 331 331 332 332 333 334 336 338 340 342 344 346 348 349 349 349 350 350 351 352 352 350 352 354 355 356 356 355 354 352 349 347 348 350 349 345 348 349 350 349 348 349 349 346 345 345 344 343 342 341 341 339 338 336 332 330 330 331 334 337 338 337 336 334 333 333 333 332
329 330 330 330 331 331 331 332 332 333 334 336 338 340 342 344 346 347 349 350 351 352 352 353 353 354 354 355 356 357 357 357 356 355 353 350 348 349 350 351 350 348 349 348 348 349 348 349 349 349 348 347 348 347 346 345 344 343 343 342 338 334 332 331 332 335 337 338 337 336 334 334 333 333
330 330 330 331 330 331 332 332 333 335 336 338 341 343 345 346 347 349 350 351 352 353 354 354 354 355 356 357 357 358 358 358 357 355 352 351 349 350 351 350 350 349 349 348 349 349 347 348 349 349 348 348 348 349 348 348 348 348 347 346 344 340 336 333 332 334 336 337 338 338 336 335 334 333
330 330 331 331 331 332 333 333 335 337 339 342 344 345 347 348 349 350 351 352 353 354 355 356 356 356 357 358 358 358 358 358 357 354 352 351 349 350 351 351 351 350 349 349 349 348 347 349 349 346 344 345 346 346 347 347 348 349 349 348 347 345 340 336 334 334 335 337 338 338 337 336 335 334
331 331 332 332 333 333 334 335 337 339 342 344 346 347 348 349 350 352 352 353 353 355 356 357 357 357 358 358 358 359 359 359 356 354 352 351 348 349 350 350 350 350 350 350 350 350 350 349 348 347 344 345 346 345 345 345 346 347 348 348 347 347 346 342 337 334 335 337 338 338 338 337 336 335
333 333 333 334 335 336 336 337 339 342 344 346 347 349 350 351 352 353 354 355 355 357 358 358 358 358 358 358 358 359 359 359 358 356 354 351 349 348 350 351 350 351 352 352 351 351 349 345 346 346 343 341 343 345 345 344 344 347 348 349 348 346 347 346 342 338 336 336 338 339 338 338 337 336
334 334 334 336 337 338 338 339 341 344 346 348 349 350 352 353 353 355 356 356 357 358 359 359 358 358 358 358 358 358 359 360 359 357 354 352 351 350 351 351 350 350 348 346 346 347 341 335 336 338 339 337 335 336 337 337 338 342 344 347 349 347 346 346 345 342 339 336 337 339 339 339 338 336
335 335 335 337 339 340 340 341 344 346 348 350 351 352 353 354 355 356 357 358 358 359 359 359 359 359 359 358 357 357 358 358 358 357 355 352 350 350 350 349 349 348 341 334 339 341 336 333 332 333 339 342 339 336 336 332 329 334 339 342 344 347 347 346 344 344 342 338 337 338 339 339 338 337
337 337 337 339 340 342 343 345 347 349 351 352 353 354 355 356 357 357 358 359 359 359 359 359 360 359 359 359 358 359 359 359 357 354 350 348 346 344 344 344 343 341 334 326 333 337 335 334 334 333 339 342 341 338 339 337 331 331 336 338 338 341 345 345 344 343 343 341 338 338 339 339 338 337
341 340 340 342 343 345 347 349 350 352 353 354 355 356 356 357 358 359 359 359 359 360 360 359 360 360 360 360 359 359 358 355 350 343 338 339 340 340 340 340 340 338 333 327 332 335 334 334 334 335 339 341 340 338 339 340 339 337 337 338 337 337 341 343 344 343 342 341 339 338 338 339 338 338
346 345 345 346 348 350 351 352 353 354 355 356 356 357 358 359 359 360 360 360 360 360 360 360 360 361 361 359 358 356 353 347 339 332 328 329 331 332 333 335 337 337 334 330 331 335 336 337 337 338 340 340 340 340 340 341 341 340 340 339 338 339 339 340 342 343 342 341 339 338 338 339 339 338
350 350 351 352 352 353 354 354 355 356 356 358 358 359 359 360 360 360 360 361 361 362 361 361 361 360 358 355 353 349 342 335 330 327 326 326 326 326 326 327 328 329 329 328 329 331 334 337 338 339 339 339 340 340 340 340 340 341 341 339 340 341 341 339 339 341 342 342 341 339 338 339 339 338
353 354 354 354 354 355 355 356 357 358 358 359 359 360 360 360 360 361 361 362 362 362 362 361 358 356 352 348 342 336 331 327 326 326 326 326 326 326 326 325 325 325 325 326 326 326 328 332 336 338 338 339 340 340 340 340 341 341 341 341 341 342 341 340 340 340 340 341 341 340 338 338 339 338
355 354 355 355 355 356 356 357 358 358 359 360 360 360 360 360 360 361 362 362 362 360 358 355 352 348 343 336 331 327 326 326 326 326 325 326 325 325 325 325 325 325 325 325 326 326 326 329 333 335 336 337 339 339 339 339 340 340 340 341 340 340 340 341 342 341 339 339 341 341 339 338 339 338
356 355 355 356 356 357 357 358 358 359 360 360 360 360 360 361 361 361 361 360 358 355 351 347 342 337 332 328 327 326 326 325 325 325 325 325 325 325 325 325 325 325 325 325 326 326 327 329 331 333 334 335 336 337 337 338 338 339 339 338 338 339 340 342 343 343 340 339 340 341 340 339 338 338
357 357 357 357 357 358 358 359 359 360 360 360 360 360 360 361 360 359 357 354 350 346 342 336 332 328 326 326 326 325 325 325 325 324 324 324 324 324 324 324 325 325 325 325 326 327 328 329 329 330 331 332 333 333 333 334 334 335 336 336 336 338 339 340 340 340 340 339 339 341 341 339 338 337
359 358 358 358 358 358 359 359 360 360 360 361 361 360 360 359 357 352 347 342 337 333 330 328 326 326 325 325 325 325 325 324 324 323 323 324 324 324 324 324 324 324 324 325 326 327 328 329 329 330 330 331 331 332 332 332 333 333 333 333 335 335 336 338 339 339 339 340 340 340 340 339 338 337
360 359 358 358 358 359 360 360 360 361 361 361 359 358 357 353 346 339 334 330 328 327 326 326 325 325 325 324 324 324 324 323 323 323 323 324 324 324 324 324 323 324 324 324 325 326 328 329 331 331 332 332 332 333 333 334 334 334 334 334 334 334 336 337 339 339 339 340 340 339 339 339 338 337
360 360 360 360 360 361 361 361 361 361 360 357 353 351 347 340 333 328 327 326 326 325 325 325 324 324 324 324 323 323 322 322 322 323 323 323 324 323 323 323 323 323 323 323 323 324 325 327 330 331 332 333 333 333 334 335 335 335 334 335 334 335 335 336 337 338 339 339 339 339 339 338 338 337
362 362 362 362 362 362 361 362 362 360 356 351 345 340 335 330 327 326 326 325 325 324 324 324 324 323 323 322 322 322 322 322 322 322 322 322 323 323 323 322 323 323 323 323 323 323 323 323 325 327 329 330 331 332 333 333 334 334 334 335 334 334 335 335 337 338 338 339 339 338 337 337 337 336
362 362 362 362 362 362 362 361 358 353 348 342 335 330 327 326 325 325 324 324 324 323 323 323 322 322 321 321 321 320 320 320 320 320 320 321 321 321 322 321 322 322 323 322 322 322 322 322 322 323 325 326 327 329 330 331 332 333 334 334 334 334 334 335 336 337 338 338 338 337 335 335 336 336
363 362 362 362 361 360 359 354 348 342 337 332 328 325 325 325 324 324 323 323 323 323 323 322 321 320 320 320 319 319 318 318 318 318 319 319 320 320 320 320 320 321 321 322 322 321 321 321 321 321 323 324 325 326 327 328 329 330 331 332 332 333 334 334 335 336 337 337 337 336 335 335 334 335
363 362 360 359 356 353 348 341 334 330 328 326 325 324 324 323 323 323 323 323 322 322 321 320 320 319 319 319 319 319 318 318 318 318 318 318 318 318 319 319 319 320 320 321 321 321 321 320 320 320 321 322 323 324 325 326 326 326 327 328 329 330 331 332 332 334 335 336 336 335 334 332 331 332
358 358 355 352 347 342 337 331 327 325 325 324 323 323 323 322 322 322 322 322 322 321 320 319 319 319 319 319 319 320 320 319 318 318 317 317 317 317 318 318 318 319 319 320 320 320 319 319 319 319 320 321 322 323 324 324 324 323 323 324 324 326 327 328 330 331 333 334 334 333 330 328 326 326
348 347 343 338 335 331 328 326 324 324 323 323 322 322 322 322 322 322 321 321 320 320 319 319 319 319 320 320 321 321 321 320 319 318 317 317 317 317 317 318 318 319 320 320 319 319 318 318 318 318 319 320 321 321 322 322 321 320 320 321 321 322 324 326 327 328 330 331 331 329 327 325 324 322
338 334 330 327 326 325 324 323 323 322 322 322 322 322 322 322 321 321 321 320 319 319 319 319 320 320 321 321 321 321 321 321 320 319 317 317 317 316 316 317 319 319 319 319 318 318 317 317 317 317 318 319 319 319 319 319 318 318 318 318 318 319 321 323 324 325 326 327 327 325 323 322 321 319
327 326 324 323 323 323 322 321 322 321 322 322 321 321 321 320 320 320 320 319 319 319 320 320 320 321 321 322 321 322 322 321 321 320 318 317 317 316 316 316 317 318 318 318 317 316 316 317 317 317 317 317 318 318 318 317 316 316 316 316 316 317 318 320 321 321 322 323 323 323 322 321 319 317
323 323 322 322 321 321 321 321 321 321 321 321 320 320 320 320 320 320 319 319 320 320 320 320 321 321 321 321 321 321 321 321 321 321 320 318 317 316 316 316 316 317 318 318 317 315 316 317 318 317 316 315 316 316 316 316 315 315 315 314 315 315 315 316 317 319 319 319 320 320 321 321 320 318
322 321 321 321 321 320 321 320 320 320 320 320 320 320 320 319 319 319 319 319 320 320 320 320 321 321 321 321 321 321 321 321 321 321 321 319 317 316 316 316 316 317 317 317 316 315 315 317 317 317 315 314 313 313 314 314 314 314 314 313 314 314 314 314 315 316 316 316 317 317 318 318 318 318
320 320 320 320 320 320 320 320 320 320 320 319 319 319 319 319 319 319 319 320 320 320 320 320 321 321 321 321 321 321 321 320 321 321 321 320 318 316 316 316 316 317 317 317 316 315 315 316 317 316 314 313 312 312 312 313 313 313 313 313 312 312 311 311 312 312 312 312 313 314 315 315 315 315
Wind_Speed
11 11 11 10 10 10 10 11 11 12 12 12 13 13 13 15 16 17 18 17 12 8 6 6 6 4 4 5 6 7 8 8 9 11 13 15 15 15 15 16 17 17 17 18 18 18 19 19 20 20 20 20 20 21 21 20 20 20 19 19 18 18 18 18 18 18 17 18 18 18 18 18 17 17
12 12 12 11 11 10 10 10 11 11 12 13 13 14 14 14 16 17 19 19 14 9 7 7 6 6 6 7 8 8 9 10 11 13 14 14 15 15 16 17 18 19 20 20 20 21 21 21 22 22 22 22 22 22 22 22 22 21 21 20 20 19 19 19 19 19 19 19 19 18 19 19 18 18
14 13 13 13 12 11 11 11 11 11 12 12 13 14 15 15 16 16 18 20 14 8 9 10 9 9 9 10 12 12 13 13 14 15 16 16 17 17 18 18 19 20 21 21 22 22 23 23 23 24 24 24 24 23 23 23 23 23 23 22 21 21 20 20 20 20 20 20 19 19 19 19 19 18
15 14 14 13 12 12 12 12 12 12 12 12 13 14 15 15 16 16 18 21 18 13 13 14 13 14 14 15 15 16 16 16 17 18 19 19 19 20 21 21 21 21 22 23 24 24 24 24 25 25 26 25 25 25 24 24 24 24 24 24 23 23 22 22 22 21 21 21 20 20 20 19 19 19
16 15 15 14 13 13 13 13 13 13 13 13 13 14 15 15 16 16 18 21 23 21 19 19 18 19 19 19 19 19 20 20 20 21 22 22 22 23 23 24 24 24 24 25 26 26 26 26 26 27 27 27 27 26 26 25 25 25 25 25 25 25 24 23 23 22 21 21 21 21 20 20 19 19
16 16 16 15 14 14 14 14 15 15 14 15 15 14 15 15 16 17 18 21 24 25 25 24 23 23 23 23 22 22 23 24 24 25 25 24 25 25 26 27 27 27 26 26 27 27 28 28 29 29 29 29 28 27 27 27 27 26 25 25 26 26 26 24 24 23 23 22 22 22 21 20 20 19
17 17 16 15 15 16 16 15 16 16 16 16 16 16 16 17 17 17 18 20 23 26 27 26 25 25 26 26 24 24 24 25 25 26 26 26 26 26 27 27 29 28 27 26 27 27 28 29 29 30 30 30 29 28 28 28 28 28 27 26 26 27 27 26 25 25 24 23 23 22 22 21 20 20
19 19 18 16 16 17 17 17 17 17 17 17 18 18 19 19 19 19 20 21 24 26 28 28 26 26 27 28 27 27 26 26 27 27 26 26 26 27 27 27 28 27 25 24 24 25 26 27 28 29 30 30 30 30 30 29 29 29 28 28 27 27 28 28 28 27 26 25 23 23 23 22 21 21
20 20 18 16 16 18 18 18 17 17 17 18 19 19 20 20 20 21 22 23 24 27 29 30 30 28 28 29 29 29 29 30 30 30 29 29 28 28 28 28 28 27 25 24 24 24 25 25 26 27 28 29 30 31 31 31 31 30 30 29 29 28 28 29 29 29 28 27 25 24 24 23 22 21
21 20 19 17 17 18 18 18 18 17 18 19 20 20 21 21 22 23 23 24 25 27 29 31 32 32 32 32 31 31 31 32 32 33 33 33 32 30 29 29 29 29 28 27 26 24 24 24 23 24 26 27 29 30 31 32 33 33 32 32 31 31 30 29 29 29 29 28 26 25 25 24 23 22
22 22 20 20 20 19 19 19 19 19 20 21 22 22 22 23 24 25 25 26 27 29 31 32 33 34 34 34 34 34 33 34 34 34 34 34 34 33 32 31 30 29 29 28 27 25 23 22 21 21 22 25 27 29 31 32 33 34 35 34 33 33 32 30 29 29 30 29 27 26 26 25 24 23
24 23 22 22 22 21 21 21 21 22 23 24 24 24 25 25 26 26 27 28 29 31 32 33 34 35 36 36 36 35 35 35 35 34 34 34 33 31 31 31 29 28 28 28 27 26 24 23 22 21 22 24 26 29 30 32 34 35 35 36 35 34 33 32 31 30 29 30 29 27 26 26 25 24
25 25 24 24 24 23 23 23 24 24 24 25 26 26 26 26 26 27 27 28 30 31 33 34 35 35 36 36 35 34 34 33 33 32 32 32 32 30 31 31 28 27 27 28 28 28 26 26 27 27 27 28 28 29 31 33 34 34 34 35 36 36 35 34 32 31 30 30 29 28 27 27 26 25
26 26 26 26 25 25 25 25 25 25 25 25 26 26 25 25 26 26 27 28 29 31 32 34 34 35 36 36 34 33 32 31 31 30 30 31 31 31 32 33 30 27 27 29 31 32 30 29 31 32 33 33 32 31 32 32 33 33 33 34 35 35 36 36 35 33 31 30 30 29 28 28 27 26
27 27 27 27 26 26 25 25 25 25 25 25 25 25 24 24 24 25 26 27 28 29 32 33 31 31 35 36 33 31 31 29 29 30 31 32 32 31 33 34 33 31 31 32 35 37 34 32 33 36 37 37 35 34 32 30 30 32 33 33 33 34 35 36 36 35 33 32 31 30 29 28 28 27
29 28 28 28 28 27 26 26 26 26 25 25 24 24 24 23 23 23 24 26 26 28 30 32 31 29 32 35 33 29 28 29 31 33 34 32 31 31 31 31 33 34 33 33 36 41 41 36 36 39 39 37 37 35 33 31 32 33 33 33 32 33 34 36 36 36 36 34 33 32 31 29 29 28
30 29 29 29 29 28 27 27 26 26 26 25 24 23 23 24 23 23 24 24 25 26 27 31 33 31 32 35 33 29 28 30 33 35 33 30 31 33 31 31 31 31 32 36 39 43 45 41 39 41 41 38 38 38 36 34 34 34 33 32 32 32 34 36 36 36 36 36 35 34 32 31 30 29
31 30 30 30 29 29 28 27 26 25 24 23 22 22 23 23 23 23 23 23 24 25 26 29 32 30 30 33 33 31 30 31 33 33 31 29 29 31 32 34 33 29 30 35 39 43 45 41 40 43 42 39 40 41 38 35 35 36 35 33 32 33 33 35 37 37 37 37 36 36 34 33 32 30
31 30 30 30 29 29 28 26 24 22 22 21 21 21 22 23 23 23 23 23 22 24 25 27 29 30 30 32 33 32 30 32 33 32 31 28 26 28 32 36 36 33 31 32 36 43 45 42 40 42 42 42 43 42 39 36 34 35 36 35 34 34 34 35 36 37 38 38 38 37 36 35 33 32
31 30 30 29 29 28 27 24 21 19 19 20 20 21 21 22 23 24 24 23 22 23 24 26 28 29 31 32 32 31 30 32 34 34 32 28 26 27 33 37 37 34 31 29 32 39 42 42 42 42 41 43 44 42 40 38 35 34 35 34 34 34 35 35 35 37 39 40 39 39 38 36 35 32
30 30 29 28 27 27 25 22 19 17 18 19 20 21 21 22 24 25 24 24 24 24 25 27 28 29 31 32 32 32 30 31 33 36 34 28 26 28 31 32 30 27 25 26 28 34 40 40 40 42 42 43 44 44 43 42 39 38 37 34 32 32 34 36 36 36 37 39 41 41 40 39 36 33
30 29 29 27 26 25 23 20 18 16 18 19 20 20 20 23 25 25 24 24 25 25 26 28 28 29 31 32 32 32 30 29 33 36 33 26 24 26 28 28 28 28 30 29 26 30 39 39 37 40 43 44 45 46 46 45 43 41 40 38 34 31 30 33 35 35 36 39 41 42 42 40 38 37
29 29 28 25 24 23 21 19 16 15 17 19 19 19 21 25 26 24 22 23 23 24 25 27 27 29 31 32 33 33 32 31 32 32 27 22 20 22 24 27 30 33 37 36 30 32 39 40 38 39 40 42 44 42 42 45 45 43 42 42 38 34 31 30 31 33 36 39 41 43 44 43 41 41
28 27 26 24 22 20 18 17 15 14 16 18 19 19 22 25 24 21 21 23 24 26 27 28 28 29 30 31 33 34 32 30 28 25 22 19 18 19 21 24 27 33 36 37 35 37 40 40 39 37 34 36 41 41 39 42 45 45 45 44 40 38 37 35 32 32 35 39 41 42 44 45 44 44
26 25 24 22 19 17 16 15 15 15 16 18 20 20 21 21 21 21 23 24 25 27 28 28 29 30 31 31 31 31 30 29 27 25 22 18 16 17 19 22 26 32 34 32 32 35 38 39 40 38 32 32 37 39 37 37 40 42 44 45 42 39 39 39 37 35 34 36 40 43 44 46 48 48
24 23 21 18 16 15 15 15 15 16 16 17 19 20 19 19 19 21 23 24 25 25 26 28 30 30 30 30 29 29 30 30 29 29 26 21 18 17 19 21 24 29 31 30 29 31 34 38 39 39 38 37 39 40 41 43 43 43 46 49 47 43 40 38 38 39 37 35 37 42 45 48 49 50
20 19 18 16 15 15 16 16 15 16 16 17 19 19 18 19 20 21 23 23 24 25 26 28 29 27 26 27 28 30 31 30 29 29 28 27 26 25 25 27 28 30 32 32 32 31 32 35 38 39 41 43 43 44 48 50 48 45 48 52 51 48 44 41 38 39 40 39 37 38 44 49 50 50
18 18 17 16 15 15 15 15 15 16 16 17 18 18 18 19 20 20 21 23 24 25 25 24 24 24 25 27 28 29 29 29 30 30 30 30 31 32 33 33 34 34 34 34 34 34 32 32 33 34 36 39 42 44 47 47 45 45 47 48 48 49 49 46 42 39 39 40 39 38 42 49 52 53
18 18 17 16 15 15 16 16 17 17 17 17 18 19 19 20 20 21 23 23 22 20 19 19 21 23 25 27 27 28 29 29 30 31 32 33 34 34 35 36 36 35 34 33 33 34 33 30 29 30 31 33 37 42 44 44 44 44 44 45 46 49 50 49 46 42 39 40 42 41 41 46 52 57
19 18 17 16 16 17 17 18 18 18 19 19 19 20 20 21 22 23 22 19 16 15 16 19 21 22 24 25 26 27 28 29 30 32 33 34 34 35 35 36 35 34 33 32 32 32 32 28 26 27 28 30 34 37 39 41 43 43 43 43 45 46 47 46 45 45 43 41 42 42 39 40 50 59
18 17 17 17 18 19 19 19 20 20 20 20 21 22 23 22 20 18 15 13 13 14 17 18 19 20 22 23 25 26 27 28 29 30 31 32 32 32 32 33 34 34 35 34 32 30 28 25 24 25 26 28 31 32 34 37 41 43 42 42 42 43 44 43 45 49 49 45 43 41 39 39 47 58
17 18 19 20 20 21 21 21 21 21 22 23 23 22 20 16 13 11 10 10 12 13 15 16 17 19 21 22 24 26 26 27 27 27 28 28 28 29 30 32 34 36 36 35 32 29 25 23 22 23 23 25 27 28 29 31 33 36 38 38 40 41 43 44 48 52 53 50 45 41 40 40 44 52
19 20 21 22 22 22 22 22 22 23 24 22 19 15 12 10 9 8 7 8 10 12 13 14 16 18 20 21 23 23 24 24 24 25 26 25 26 27 29 31 33 35 37 37 35 32 27 23 21 22 23 24 26 27 28 30 30 30 31 32 33 35 37 39 43 47 49 49 46 42 41 42 42 46
20 21 21 22 22 22 22 22 22 21 19 15 10 8 7 6 6 6 6 8 10 11 12 14 15 17 18 19 19 21 21 22 22 23 23 23 25 27 29 30 32 34 35 37 36 35 33 29 25 24 25 26 26 25 25 28 30 30 29 29 29 30 31 32 34 37 40 42 45 45 43 43 43 46
21 21 21 21 22 22 21 19 17 15 13 10 7 5 5 5 5 6 7 8 9 10 12 13 14 14 14 15 17 18 19 20 20 21 22 23 24 26 28 30 31 32 34 36 36 35 35 33 31 29 27 27 28 27 23 23 27 30 30 29 28 28 28 28 30 35 37 40 45 47 45 45 46 47
21 21 21 21 21 19 18 16 14 12 10 8 6 5 5 6 6 6 7 8 8 9 10 10 10 11 11 13 14 15 17 18 20 21 22 23 24 25 26 28 29 30 31 33 35 35 34 34 35 34 32 30 30 29 25 22 23 27 30 30 30 29 28 27 29 33 36 38 42 44 46 47 48 48
19 19 19 19 17 16 15 14 12 10 8 7 7 7 7 6 6 6 7 7 7 7 7 7 8 9 10 11 13 15 17 19 21 23 24 25 25 26 27 28 29 30 30 31 33 35 36 36 37 36 34 31 30 30 28 25 23 23 25 29 30 29 28 28 29 32 33 35 38 40 43 46 48 48
18 17 16 15 14 13 12 10 8 7 8 8 8 7 6 6 6 6 6 5 4 4 5 5 6 7 9 11 13 16 18 20 23 24 26 26 27 28 29 29 29 30 30 30 32 35 36 37 38 37 34 31 31 32 33 32 29 26 26 29 31 29 27 27 29 30 31 33 35 37 39 42 45 47
17 16 14 13 12 11 10 9 8 9 9 8 7 6 6 6 5 5 3 2 2 2 3 4 5 7 8 11 14 16 19 21 23 25 26 27 29 30 30 30 30 31 32 32 33 35 36 37 37 37 34 30 29 30 30 29 30 29 27 27 29 28 25 24 25 27 29 31 33 35 37 38 38 38
13 13 11 11 10 10 10 11 11 10 9 8 7 7 7 6 4 3 2 1 0 1 2 3 5 7 9 11 14 16 19 21 23 25 26 27 29 30 31 30 30 29 29 30 33 35 36 36 36 35 33 30 28 27 26 26 28 30 30 28 28 27 23 20 20 23 27 30 31 32 34 34 31 30
11 12 11 10 11 11 11 11 11 9 8 8 8 8 7 5 4 3 2 2 2 1 2 3 5 7 9 12 14 16 18 20 22 24 26 27 29 30 31 30 28 26 26 28 31 34 34 34 34 33 30 29 29 29 28 29 30 31 32 31 30 29 26 19 14 16 21 24 26 26 27 27 26 27
11 12 13 12 12 11 11 11 10 9 9 9 9 7 6 4 4 3 3 3 2 0 2 3 5 7 9 12 14 15 17 19 21 23 24 26 27 28 30 29 28 28 29 29 30 33 31 28 28 31 31 29 28 26 25 25 25 25 26 26 25 25 23 20 13 8 10 14 19 22 23 23 24 28
12 12 13 13 13 12 11 11 11 10 10 9 8 6 5 5 4 4 3 3 1 1 2 3 5 7 9 11 13 15 16 18 20 21 23 24 26 26 27 28 28 28 28 28 28 31 29 23 21 24 27 27 26 25 22 20 20 20 20 19 17 16 15 14 10 6 2 6 12 18 21 24 26 32
15 14 14 13 13 12 12 11 11 10 9 8 7 6 6 5 5 4 4 3 2 2 3 4 6 8 10 12 13 14 15 16 18 20 21 22 24 25 25 26 26 25 26 26 26 28 27 22 18 18 21 24 26 25 22 18 16 16 15 14 13 13 12 11 9 8 7 6 6 11 16 20 25 31
17 16 15 14 13 12 11 11 10 9 9 8 7 7 6 6 6 6 5 4 4 3 4 6 7 9 10 12 14 15 16 16 17 18 19 21 22 23 23 24 23 22 23 24 24 24 24 21 17 16 18 21 22 21 19 16 14 13 13 12 13 15 16 16 17 19 21 21 16 10 12 17 22 26
Wind_Direction
263 263 263 263 263 264 263 262 263 264 265 267 271 274 275 277 282 290 299 306 311 312 312 313 311 306 294 292 296 297 298 298 291 284 283 285 286 287 285 285 286 287 288 289 290 291 291 292 293 295 296 297 298 297 294 292 291 289 288 288 288 289 292 295 297 300 303 306 310 313 314 314 314 314
261 263 264 266 267 266 266 265 264 263 265 267 269 272 272 272 275 281 289 297 305 309 306 309 305 295 286 287 292 295 296 298 295 294 294 294 296 296 291 288 287 287 288 288 288 288 288 289 290 291 292 294 296 297 297 295 293 290 288 286 285 286 288 290 292 294 296 300 303 307 309 310 310 311
261 262 265 267 268 269 268 267 266 266 267 269 270 271 270 271 273 275 280 288 296 303 299 299 297 290 287 289 291 293 294 295 295 296 296 297 299 297 294 292 292 290 289 289 288 288 288 288 289 289 290 291 292 294 295 294 293 291 288 285 283 283 284 286 288 290 291 294 298 301 304 305 306 308
260 261 262 265 267 269 270 269 269 270 270 270 271 272 272 271 273 274 274 279 286 291 289 288 288 287 287 287 288 289 291 292 293 294 295 295 295 293 292 292 290 289 288 288 287 287 287 287 288 288 287 287 287 288 290 292 292 290 288 285 282 282 282 283 285 286 287 289 293 296 298 300 302 305
260 261 262 264 265 267 269 271 272 272 273 274 274 275 278 278 278 279 277 279 286 290 290 289 290 288 288 288 288 290 291 292 292 291 291 292 292 292 292 290 288 287 287 287 287 286 286 285 285 285 284 283 283 284 286 288 289 289 287 285 282 281 280 281 282 282 283 285 289 291 293 295 297 301
260 261 261 263 264 266 268 270 272 273 274 275 277 278 281 284 285 285 284 283 287 291 294 296 295 294 293 293 293 293 293 292 292 291 291 292 291 290 289 288 287 286 286 286 286 286 285 284 283 282 282 281 281 280 281 283 284 285 286 285 282 280 279 279 279 279 279 282 285 287 288 290 293 296
259 261 261 261 263 266 266 267 269 272 273 275 277 280 281 283 285 286 286 285 286 290 294 295 296 298 298 298 297 296 294 294 293 293 294 294 293 291 291 290 289 290 290 290 289 287 285 283 281 280 280 280 280 279 279 280 281 282 283 284 283 280 278 276 276 275 276 278 281 282 283 285 288 290
258 260 260 258 260 263 264 265 266 268 271 273 275 277 279 281 283 284 285 285 286 289 291 292 295 297 297 298 299 299 298 297 297 296 297 297 297 298 299 298 298 299 301 300 297 293 289 286 282 280 278 278 278 279 279 279 279 280 281 282 282 280 278 275 273 272 272 274 276 277 278 280 282 285
256 258 258 256 256 259 262 263 265 268 271 273 274 275 277 280 282 284 284 285 287 288 289 292 294 294 294 295 296 297 299 299 299 299 299 300 301 302 303 304 305 307 308 307 305 302 297 292 287 281 277 275 275 276 277 278 278 278 277 278 278 278 277 275 272 269 269 270 271 272 273 276 278 280
255 256 256 256 255 257 260 263 266 269 271 273 275 276 278 281 283 284 285 286 286 287 288 290 292 293 294 294 294 295 296 298 300 301 302 304 304 304 304 305 307 309 310 310 309 307 304 301 295 287 279 274 272 272 272 273 274 274 273 273 273 274 274 273 271 267 266 266 267 268 270 272 275 277
255 257 257 258 258 259 261 264 267 270 272 274 276 278 280 282 284 285 286 286 287 287 288 288 290 291 292 294 295 296 297 298 299 301 303 304 304 305 306 308 310 311 311 311 311 308 307 307 305 298 287 277 271 268 267 267 268 269 269 269 269 270 271 271 270 266 264 263 263 264 267 269 272 274
256 258 259 260 262 263 264 266 269 271 273 276 278 279 281 282 284 286 287 288 288 289 289 289 290 291 292 292 293 295 297 298 300 303 304 304 305 308 309 310 313 314 313 312 310 307 306 304 300 295 287 279 273 267 264 263 262 262 264 266 266 267 268 269 269 267 264 262 262 262 263 266 269 272
257 259 260 262 263 265 267 269 271 272 274 277 278 279 281 283 285 286 287 288 288 289 291 290 291 292 291 291 293 295 297 299 302 303 303 304 308 313 314 316 318 318 313 309 304 301 301 298 294 290 285 281 277 272 267 264 262 261 261 264 265 266 267 267 268 267 264 261 260 259 260 262 266 269
257 258 260 262 264 266 267 269 270 271 273 275 275 277 279 282 285 287 287 288 288 289 290 290 291 292 291 291 294 296 299 302 303 304 305 308 312 317 320 321 320 315 307 302 298 296 295 293 290 287 284 282 279 274 271 270 269 267 265 263 263 265 266 266 266 266 264 260 258 257 257 258 261 265
257 258 260 262 264 265 267 268 269 271 271 273 274 275 277 279 281 283 286 287 287 289 289 290 291 290 290 292 296 300 304 307 307 307 308 310 313 319 322 319 313 306 300 297 296 294 291 286 284 282 282 281 279 276 275 274 273 272 269 264 261 260 262 263 264 264 262 259 257 255 254 254 257 261
257 259 261 263 265 266 267 268 270 270 270 271 272 274 275 275 275 276 279 283 285 286 288 289 289 288 292 297 300 304 309 309 308 307 308 310 314 316 314 306 301 302 302 300 298 295 291 287 285 283 282 282 280 277 276 274 271 269 267 265 261 258 256 257 259 260 261 259 256 254 253 252 254 257
258 260 262 264 265 266 268 269 270 270 271 270 270 271 271 270 270 271 274 277 281 283 285 286 287 289 295 299 302 307 309 308 306 303 303 308 310 307 303 298 298 302 303 302 299 295 292 293 293 290 287 285 282 279 276 273 270 268 266 265 263 259 255 254 254 255 256 256 255 253 252 251 251 253
258 260 262 263 265 267 268 269 269 270 270 271 271 271 269 268 268 269 270 273 277 280 283 285 288 293 297 298 302 307 308 308 306 302 303 306 304 302 304 304 304 304 302 301 298 293 292 296 297 294 293 293 290 287 285 279 272 268 268 267 263 260 256 253 252 251 251 252 253 251 250 249 248 250
258 260 262 263 265 267 268 268 268 269 269 271 272 272 272 272 273 273 272 273 276 280 284 289 292 296 296 297 302 306 309 309 304 302 306 305 297 299 304 301 300 302 302 300 295 292 294 299 298 296 298 299 298 296 294 289 280 272 270 268 264 260 258 254 251 250 250 249 250 250 249 248 247 247
257 259 262 264 265 267 267 267 266 267 269 271 272 273 275 278 281 283 280 278 279 282 288 293 295 295 294 294 297 302 308 310 305 303 305 300 290 298 304 300 301 306 307 305 301 297 298 301 301 301 302 302 300 298 296 293 289 284 279 275 269 262 259 256 251 248 248 248 248 248 248 247 244 245
257 259 260 262 264 265 266 266 265 265 266 270 272 275 279 282 285 286 286 288 289 288 289 292 293 292 291 289 292 298 306 312 310 306 306 303 297 300 302 299 302 306 303 304 305 300 298 301 304 303 302 299 296 294 293 293 293 292 290 286 279 268 260 256 253 249 246 246 245 245 246 244 242 242
255 257 257 258 261 262 263 263 262 262 266 270 273 277 282 285 285 286 290 295 296 293 292 293 292 290 290 291 294 299 305 309 307 306 310 314 309 303 301 301 304 302 299 302 300 292 294 301 302 300 298 296 293 291 291 292 292 292 292 292 289 282 271 262 258 253 248 245 243 242 243 242 239 240
253 254 255 255 257 258 259 258 257 259 265 270 274 278 282 284 284 288 293 293 292 291 293 294 294 294 296 298 298 301 306 309 308 310 318 324 317 308 303 302 300 297 303 311 306 294 297 302 301 298 296 293 293 293 291 291 291 291 293 294 292 290 286 276 265 258 251 245 241 239 239 239 237 238
251 252 253 253 253 253 253 252 251 254 261 267 271 274 277 280 284 289 290 288 288 290 291 292 295 297 299 301 303 307 312 314 313 316 319 319 316 310 302 298 293 292 303 314 310 300 302 302 299 298 294 288 290 292 290 291 292 291 291 291 291 291 291 284 275 265 254 246 241 238 237 236 235 236
249 250 250 249 249 247 247 246 245 246 252 260 265 267 270 276 283 285 284 285 288 291 293 295 297 301 304 307 310 313 316 317 318 321 320 315 310 303 296 294 290 290 301 313 307 298 298 297 295 295 292 285 286 289 288 289 291 292 291 290 289 289 289 286 281 275 263 251 242 237 234 233 234 235
245 246 246 244 242 242 242 241 242 243 247 254 260 263 266 272 276 280 283 287 290 292 294 297 301 306 311 313 314 315 317 319 320 323 324 321 315 307 300 296 291 291 299 308 304 295 292 291 291 290 287 284 284 287 287 285 286 289 290 291 291 290 289 287 284 279 272 262 250 240 235 232 232 234
242 244 245 242 237 238 243 245 245 247 249 253 257 261 265 269 273 278 282 286 290 293 296 299 303 309 312 312 313 314 316 319 320 322 323 322 320 318 315 311 307 304 305 309 307 302 294 288 287 287 287 286 285 285 285 285 285 285 287 289 290 289 287 287 284 279 275 271 262 249 239 232 231 233
243 245 245 243 240 241 246 249 251 252 253 255 258 262 265 269 273 278 282 286 290 294 297 300 304 308 310 311 314 316 317 318 320 321 321 320 319 317 316 314 312 312 313 314 312 310 303 294 287 285 285 285 285 284 285 285 285 284 284 285 285 284 284 284 282 279 278 274 268 257 243 233 229 230
243 244 245 246 246 247 250 254 257 258 258 259 262 265 267 271 276 281 283 286 289 292 297 302 306 309 311 312 314 315 316 318 318 318 318 318 318 317 316 316 317 319 320 319 316 314 312 304 294 288 284 281 281 282 284 284 283 282 282 282 283 283 283 279 276 276 278 275 269 261 250 239 231 228
240 241 243 245 247 249 253 256 259 260 262 265 267 269 272 277 283 284 281 283 289 295 300 305 307 308 309 311 312 313 315 317 318 318 319 320 321 322 322 323 326 328 329 327 324 322 318 310 301 296 289 283 280 281 282 284 283 281 280 281 282 281 277 272 271 273 275 274 269 264 260 250 238 231
236 238 239 241 245 249 252 256 259 261 264 267 269 273 277 281 283 281 279 285 295 299 302 305 306 307 308 309 311 313 316 319 321 323 325 327 330 331 332 335 339 341 342 340 336 331 324 314 307 303 297 290 288 289 288 287 286 284 283 282 281 279 276 274 273 273 273 274 271 266 261 253 240 232
232 235 238 240 244 249 252 256 259 261 265 269 272 275 275 273 271 273 281 292 298 300 302 303 303 304 307 309 312 315 319 323 326 329 332 334 336 339 343 348 351 351 351 350 347 341 334 323 315 313 309 303 302 302 299 296 294 293 291 288 283 281 280 278 274 270 269 268 266 262 258 253 244 235
229 233 238 242 245 249 252 254 257 260 264 268 268 265 260 260 267 279 287 292 296 299 300 300 301 304 308 311 316 320 325 330 333 334 336 338 341 347 352 356 358 357 355 355 353 350 345 335 324 319 316 311 309 309 306 304 304 305 304 300 294 288 285 280 274 267 261 259 258 258 254 251 249 242
230 234 239 242 244 247 249 251 255 258 258 252 245 244 253 266 277 281 281 285 290 294 296 299 304 308 312 318 324 329 333 337 339 340 342 346 350 355 358 358 358 358 357 358 359 358 354 347 336 323 315 310 307 306 306 308 310 313 313 311 307 302 296 292 285 275 267 261 260 257 252 248 248 243
228 232 235 238 241 244 247 249 250 246 238 229 229 242 255 258 259 262 272 282 288 293 299 303 308 315 323 330 336 339 342 346 349 351 354 357 359 1 2 1 0 0 360 1 4 4 1 357 349 338 329 322 314 310 310 311 313 316 316 313 311 309 307 302 294 285 276 268 261 255 249 245 245 240
227 230 232 236 239 239 238 234 227 221 219 220 221 221 225 236 247 258 270 281 288 294 301 308 317 330 341 345 349 352 356 2 6 7 7 9 8 7 7 5 3 2 2 3 5 5 4 2 359 352 345 340 333 327 324 322 318 314 313 311 309 308 309 307 299 289 280 269 259 251 245 242 241 239
225 228 229 230 229 225 219 212 205 204 206 205 204 207 218 234 248 259 271 281 289 296 305 320 337 350 358 2 6 11 14 17 18 18 17 16 14 13 12 11 8 6 6 5 5 5 5 5 4 359 351 345 340 333 329 330 326 315 309 309 306 304 305 305 298 292 285 275 265 259 253 248 244 242
222 221 218 215 210 205 200 193 186 188 192 193 197 205 216 231 245 255 265 277 288 303 322 345 1 9 13 15 17 19 20 18 19 21 19 17 15 15 15 13 11 10 10 9 7 6 5 5 4 1 354 346 340 335 332 334 335 331 325 320 314 310 309 306 299 293 287 280 272 263 252 243 239 238
201 200 198 197 195 190 185 179 178 184 190 194 201 209 215 224 233 238 248 265 287 324 354 11 18 19 20 20 19 19 18 17 17 19 18 15 14 15 14 13 12 12 11 11 10 8 7 6 4 1 356 347 338 333 332 333 334 336 337 332 326 322 318 311 302 296 287 277 267 254 239 230 228 227
172 174 175 177 177 173 171 174 179 184 190 195 201 206 208 209 209 209 212 208 149 58 38 30 22 18 18 18 16 15 15 17 17 17 16 15 13 12 12 12 12 11 9 9 8 8 6 5 4 1 356 350 342 339 341 344 345 347 349 349 345 341 334 319 299 287 276 265 254 242 231 224 219 213
157 158 158 159 161 163 169 176 181 185 191 195 196 195 192 187 180 175 168 157 136 88 48 26 16 13 12 11 10 10 10 13 14 14 14 14 12 11 11 11 10 8 7 6 6 5 3 2 3 3 358 353 352 353 355 357 357 355 354 355 355 353 350 342 316 284 269 259 247 233 220 212 205 194
148 153 155 157 162 168 174 180 183 184 187 188 186 181 174 169 165 162 159 158 156 82 15 4 1 4 5 3 3 5 6 8 10 11 12 11 11 10 10 9 8 8 6 5 5 4 1 358 1 4 3 360 359 0 0 359 359 357 357 359 2 1 359 358 350 314 277 259 245 231 217 205 189 174
149 155 158 162 168 174 177 177 177 178 179 179 176 172 169 166 163 161 165 171 189 285 328 341 347 352 355 355 355 358 2 4 6 7 8 8 8 9 9 8 7 6 5 3 3 3 2 359 357 0 4 6 5 4 4 2 360 0 4 9 16 19 18 17 12 359 294 218 219 220 217 209 196 182
157 161 164 167 171 172 173 174 174 175 176 176 175 175 173 171 170 174 183 196 220 270 307 325 333 337 341 345 348 351 354 357 360 3 5 4 4 5 6 7 7 5 2 1 1 1 1 2 1 1 7 12 13 14 15 13 10 11 17 25 36 47 53 56 55 61 86 117 170 204 207 203 195 183
162 167 170 172 173 173 175 177 178 179 181 181 182 183 183 183 187 192 202 218 241 266 289 309 321 326 332 336 339 341 343 346 351 357 0 1 1 0 1 3 5 3 359 358 359 359 360 3 5 6 10 16 21 24 25 25 25 27 30 40 57 69 74 78 83 87 89 88 91 113 148 157 155 151